Regional Weather Roundup
Issued by NWS

Home | Current Version | Previous Version | Text Only | Print | Product List | Glossary On
Versions: 1 2 3 4 5 6 7 8 9 10 11 12 13 14 15 16 17 18 19 20 21 22 23 24 25 26 27 28 29 30 31 32 33 34 35 36 37 38 39 40 41 42 43 44 45 46 47 48 49 50
000
ASUS43 KDTX 251910
RWRMI
MICHIGAN HOURLY REGIONAL WEATHER ROUNDUP
NATIONAL WEATHER SERVICE DETROIT/PONTIAC MI
200 PM EST SUN JAN 25 2015

NOTE: "FAIR" INDICATES FEW OR NO CLOUDS BELOW 12,000 FEET WITH NO
SIGNIFICANT WEATHER AND/OR OBSTRUCTION TO VISIBILITY.

MIZ047>049-052>055-059>063-066>070-074>076-081>083-252000-
SOUTHEAST LOWER MICHIGAN

CITY           SKY/WX    TMP DP  RH WIND       PRES   REMARKS
ADRIAN         CLOUDY    25  19  78 E16       29.84F WCI  12
ALMA           PTSUNNY   21  13  70 NE16G22   29.95S WCI   7
ANN ARBOR      CLOUDY    25  16  68 NE13      29.86F WCI  14
BAD AXE        FLURRIES  19  12  73 NE9       29.97S WCI   9
CARO           MOSUNNY   24  11  57 CALM      29.94F
DETROIT CITY   CLOUDY    25  14  63 NE13      29.90F WCI  14
DETROIT        CLOUDY    25  17  72 NE10      29.88F WCI  15
FLINT          SUNNY     25  12  58 NE12      29.91F WCI  14
GROSSE ILE     CLOUDY    23  16  74 NE13      29.87F WCI  11
HILLSDALE      LGT SNOW  24  20  83 E14       29.80F WCI  12
HOWELL         CLOUDY    24  14  66 NE10G17   29.86F WCI  13

CITY           SKY/WX    TMP DP  RH WIND       PRES   REMARKS
JACKSON        CLOUDY    25  14  63 NE13G22   29.84F WCI  14
LAMBERTVILLE   LGT SNOW  27  19  74 E9G20     29.86S WCI  17
LANSING        CLOUDY    23  13  65 NE15      29.89F WCI  10
LAPEER         MOCLDY    22  11  65 NE10G16   29.92F WCI  11
MASON          CLOUDY    23  15  71 NE13G18   29.86F WCI  11
MONROE         FLURRIES  25  18  74 E12G21    29.86S WCI  14
MT. CLEMENS    PTSUNNY   25  14  62 NE14      29.89F WCI  13
PONTIAC        PTSUNNY   23  12  62 NE12      29.87F WCI  12
PORT HOPE        N/A     20  11  68 NE13      29.98R WCI   7
PORT HURON     SUNNY     21  10  63 NE14      29.94S WCI   8
TRI CITIES     SUNNY     23  11  60 NE17G23   29.96F WCI   9
TROY           PTSUNNY   27  14  58 NE13      29.90F WCI  16
SAGINAW HB     MOSUNNY   23  14  68 NE15      29.96R WCI  10
$$
MIZ043>046-050>051-056>058-064>065-071>073-077>080-252000-
SOUTHWEST LOWER MICHIGAN

CITY           SKY/WX    TMP DP  RH WIND       PRES   REMARKS
BATTLE CREEK   CLOUDY    26  14  60 NE16G24   29.83F WCI  14
BENTON HARBOR  CLOUDY    27  21  78 NE12G22   29.82R WCI  17
BIG RAPIDS     SUNNY     21   7  55 E10       29.93S WCI  10
COLDWATER      LGT SNOW  25  21  83 E13       29.81S WCI  14
FREMONT        FAIR      23   1  39 E13       29.92S WCI  11
HOLLAND        CLOUDY    25  13  60 NE13G22   29.88S WCI  14
GRAND RAPIDS   PTSUNNY   21  13  71 NE18      29.89F WCI   6
IONIA          FAIR      23  14  68 E16       29.89F WCI   9
KALAMAZOO      CLOUDY    27  16  63 NE8G17    29.83S WCI  19
LUDINGTON      MOSUNNY   24   2  39 E10G17    29.96S WCI  13
MARSHALL       CLOUDY    25  16  68 E13       29.82F WCI  14
MOUNT PLEASANT SUNNY     22  10  60 NE12      29.95F WCI  11
MUSKEGON       MOSUNNY   26   9  48 NE17      29.91F WCI  13
SOUTH HAVEN    CLOUDY    28  15  58 E16G22    29.83R WCI  16
$$
MIZ016>042-252000-
NORTHERN LOWER MICHIGAN

CITY           SKY/WX    TMP DP  RH WIND       PRES   REMARKS
ALPENA         MOSUNNY   15   5  64 N7        30.04S WCI   5
BEAVER ISLAND  SUNNY     11  -3  53 NE8       30.06S WCI  -1
BELLAIRE       SUNNY     19   2  46 N3        30.03S
CADILLAC       MOSUNNY   17   0  48 NE12      29.93S WCI   4
CHARLEVOIX     SUNNY     15   3  60 NE8       30.07F WCI   4
FRANKFORT      MOSUNNY   19   2  48 NE6       30.01F WCI  11
GAYLORD        SUNNY     15   1  53 VRB6      29.96S WCI   6
GRAYLING       MOSUNNY   16   2  54 NE6       29.98S WCI   7
HARBOR SPRINGS SUNNY     15   2  55 E3        30.04S
HOUGHTON LAKE  MOSUNNY   18   3  52 NE7       29.96S WCI   9
MANISTEE       MOSUNNY   19   3  49 NE10G20   29.98F WCI   8
OSCODA         PTSUNNY   19   9  63 NE8       30.01R WCI   9
PELLSTON       SUNNY     15   4  61 CALM      30.06R
ROGERS CITY    MOSUNNY   15   8  72 NE8       30.06S WCI   4
TRAVERSE CITY  PTSUNNY   16   4  59 NE5       30.02S WCI   9
$$
MIZ007>008-015-252000-
EASTERN UPPER MICHIGAN

CITY           SKY/WX    TMP DP  RH WIND       PRES   REMARKS
KINROSS        SUNNY     16  -2  45 CALM      30.07R
MACKINAC ISLAN SUNNY     13   1  58 NE3       30.07R
NEWBERRY       SUNNY      9   0  66 CALM      30.05F
S. S. MARIE    SUNNY     10  -6  48 SW3       30.06R
MUNISING         N/A     20  10  65 NE7       30.08R WCI  11
$$
MIZ004>006-011>014-085-252000-
CENTRAL UPPER MICHIGAN

CITY           SKY/WX    TMP DP  RH WIND       PRES   REMARKS
MANISTIQUE     SUNNY     18   5  58 CALM      30.06S
ESCANABA       MOSUNNY   19   7  58 E7        30.06F WCI  10
MENOMINEE      PTSUNNY   19   7  58 E13G18    30.06S WCI   7
SAWYER-GWINN   CLOUDY    16   7  67 N8        30.03R WCI   5
$$
MIZ001>003-009>011-084-252000-
WESTERN UPPER MICHIGAN

CITY           SKY/WX    TMP DP  RH WIND       PRES   REMARKS
IRON MOUNTAIN  CLOUDY    18   6  59 E5        30.02S WCI  11
HOUGHTON       PTSUNNY   15   4  61 VRB3      30.05F
COPPER HARBOR    N/A     16   6  65 VRB6      30.10F WCI   7
IRONWOOD       CLOUDY    18   7  62 CALM      30.02S
$$

ABBREVIATIONS USED IN REMARKS
   TC - TEMPERATURE IN CELSIUS
  WCI - WIND CHILL INDEX
   HX - HEAT INDEX
  VSB - VISIBILITY




USA.gov is the U.S. government's official web portal to all federal, state and local government web resources and services.